Detroit Lakes, MN

5:02 AM CDT on September 25, 2017 (GMT -0500)
Detroit Lakes

Weather History for KDTL - June, 2013

Change the Weather History Date:

Tuesday, June 18, 2013

  Actual Average Record
Temperature  
Mean Temperature 63 °F -  
Max Temperature 73 °F 74 °F 96 °F (1933)
Min Temperature 53 °F 50 °F 38 °F (1958)
Degree Days  
Heating Degree Days 2    
Growing Degree Days 13 (Base 50)    
Moisture  
Dew Point 47 °F    
Average Humidity 56    
Maximum Humidity 94    
Minimum Humidity 33    
Precipitation  
Precipitation 0.00 in - - ()
Sea Level Pressure  
Sea Level Pressure 30.08 in    
Wind  
Wind Speed 5 mph (SE)    
Max Wind Speed 9 mph    
Max Gust Speed -    
Visibility 10 miles    
Events      
Averages and records for this station are not official NWS values.
T = Trace of Precipitation, MM = Missing Value Source: NWS Daily Summary

Daily Weather History Graph

Daily Weather History Graph

Search for Another Location

Airport or City:

Trip Planner

Search our weather history database for the weather conditions in past years. The results will help you decide how hot, cold, wet, or windy it might be!

Date:

Astronomy

Jun. 18, 2013 Rise Set
Actual Time 5:28 AM CDT 9:20 PM CDT
Civil Twilight 4:49 AM CDT 10:00 PM CDT
Nautical Twilight 3:54 AM CDT 10:54 PM CDT
Astronomical Twilight 2:34 AM CDT 12:15 AM CDT
Moon 3:52 PM CDT (6/18) 1:54 AM CDT (6/18)
Length of Visible Light 17h 11m
Length of Day
15h 52m
Waxing Gibbous, 71% of the Moon is Illuminated
Jun 18
Waxing Gibbous
Jun 23
Full
Jun 29
Last Quarter
Jul 8
New
Jul 15
First Quarter

Hourly Weather History & Observations

Time (CDT) Temp. Dew Point Humidity Pressure Visibility Wind Dir Wind Speed Gust Speed Precip Events Conditions
12:15 AM 60.8 °F 55.4 °F 82% 30.08 in 10.0 mi East 3.5 mph - N/A   Clear
12:35 AM 60.8 °F 55.4 °F 82% 30.08 in 10.0 mi Calm Calm - N/A   Clear
12:55 AM 60.8 °F 53.6 °F 77% 30.09 in 10.0 mi ESE 4.6 mph - N/A   Clear
1:16 AM 59.0 °F 53.6 °F 82% 30.08 in 10.0 mi ESE 4.6 mph - N/A   Clear
1:35 AM 59.0 °F 53.6 °F 82% 30.09 in 10.0 mi ESE 5.8 mph - N/A   Clear
1:55 AM 59.0 °F 53.6 °F 82% 30.09 in 10.0 mi East 4.6 mph - N/A   Clear
2:15 AM 59.0 °F 53.6 °F 82% 30.09 in 10.0 mi ESE 4.6 mph - N/A   Clear
2:35 AM 57.2 °F 53.6 °F 88% 30.09 in 10.0 mi ESE 5.8 mph - N/A   Clear
2:55 AM 57.2 °F 51.8 °F 82% 30.10 in 10.0 mi ESE 3.5 mph - N/A   Clear
3:16 AM 55.4 °F 51.8 °F 88% 30.10 in 10.0 mi ESE 5.8 mph - N/A   Clear
3:35 AM 55.4 °F 51.8 °F 88% 30.11 in 10.0 mi ESE 6.9 mph - N/A   Clear
3:55 AM 55.4 °F 51.8 °F 88% 30.11 in 10.0 mi SE 9.2 mph - N/A   Clear
4:15 AM 55.4 °F 51.8 °F 88% 30.11 in 10.0 mi SE 8.1 mph - N/A   Clear
4:35 AM 55.4 °F 51.8 °F 88% 30.11 in 10.0 mi SE 8.1 mph - N/A   Clear
4:55 AM 53.6 °F 51.8 °F 94% 30.11 in 10.0 mi SE 5.8 mph - N/A   Clear
5:16 AM 53.6 °F 51.8 °F 94% 30.12 in 10.0 mi ESE 6.9 mph - N/A   Clear
5:35 AM 53.6 °F 50.0 °F 88% 30.12 in 10.0 mi ESE 4.6 mph - N/A   Clear
5:56 AM 53.6 °F 50.0 °F 88% 30.12 in 10.0 mi SE 4.6 mph - N/A   Clear
6:15 AM 53.6 °F 48.2 °F 82% 30.12 in 10.0 mi SE 5.8 mph - N/A   Clear
6:35 AM 53.6 °F 42.8 °F 67% 30.13 in 10.0 mi SE 6.9 mph - N/A   Clear
6:56 AM 53.6 °F 39.2 °F 58% 30.13 in 10.0 mi SE 6.9 mph - N/A   Clear
7:15 AM 53.6 °F 33.8 °F 47% 30.12 in 10.0 mi SE 5.8 mph - N/A   Clear
7:35 AM 55.4 °F 35.6 °F 47% 30.13 in 10.0 mi SE 6.9 mph - N/A   Clear
7:55 AM 55.4 °F 33.8 °F 44% 30.13 in 10.0 mi SE 6.9 mph - N/A   Clear
8:16 AM 57.2 °F 35.6 °F 44% 30.14 in 10.0 mi SSE 8.1 mph - N/A   Clear
8:35 AM 59.0 °F 35.6 °F 42% 30.14 in 10.0 mi SE 5.8 mph - N/A   Clear
8:55 AM 59.0 °F 37.4 °F 45% 30.14 in 10.0 mi SE 6.9 mph - N/A   Clear
9:16 AM 60.8 °F 37.4 °F 42% 30.14 in 10.0 mi SE 4.6 mph - N/A   Clear
9:35 AM 60.8 °F 41.0 °F 48% 30.14 in 10.0 mi SSE 8.1 mph - N/A   Clear
9:55 AM 62.6 °F 42.8 °F 48% 30.14 in 10.0 mi SSE 5.8 mph - N/A   Clear
10:16 AM 62.6 °F 44.6 °F 52% 30.14 in 10.0 mi SSE 4.6 mph - N/A   Clear
10:35 AM 64.4 °F 44.6 °F 49% 30.13 in 10.0 mi SE 5.8 mph - N/A   Clear
10:55 AM 64.4 °F 46.4 °F 52% 30.12 in 10.0 mi SE 6.9 mph - N/A   Clear
11:16 AM 66.2 °F 46.4 °F 49% 30.13 in 10.0 mi SSE 5.8 mph - N/A   Clear
11:35 AM 68.0 °F 48.2 °F 49% 30.12 in 10.0 mi ESE 6.9 mph - N/A   Clear
11:55 AM 68.0 °F 48.2 °F 49% 30.12 in 10.0 mi SE 6.9 mph - N/A   Clear
12:15 PM 68.0 °F 48.2 °F 49% 30.11 in 10.0 mi South 5.8 mph - N/A   Clear
12:35 PM 69.8 °F 46.4 °F 43% 30.10 in 10.0 mi SE 9.2 mph - N/A   Clear
12:56 PM 69.8 °F 46.4 °F 43% 30.10 in 10.0 mi South 9.2 mph - N/A   Clear
1:15 PM 69.8 °F 46.4 °F 43% 30.10 in 10.0 mi SSE 9.2 mph - N/A   Clear
1:35 PM 69.8 °F 44.6 °F 40% 30.09 in 10.0 mi South 6.9 mph - N/A   Clear
1:56 PM 71.6 °F 44.6 °F 38% 30.09 in 10.0 mi SSE 9.2 mph - N/A   Clear
2:15 PM 71.6 °F 44.6 °F 38% 30.08 in 10.0 mi South 8.1 mph - N/A   Clear
2:35 PM 73.4 °F 46.4 °F 38% 30.08 in 10.0 mi SSE 8.1 mph - N/A   Clear
2:56 PM 71.6 °F 44.6 °F 38% 30.07 in 10.0 mi SSE 9.2 mph - N/A   Clear
3:15 PM 73.4 °F 44.6 °F 36% 30.07 in 10.0 mi South 8.1 mph - N/A   Clear
3:35 PM 73.4 °F 44.6 °F 36% 30.07 in 10.0 mi SSE 8.1 mph - N/A   Clear
3:56 PM 73.4 °F 44.6 °F 36% 30.06 in 10.0 mi SSE 6.9 mph - N/A   Clear
4:15 PM 73.4 °F 44.6 °F 36% 30.06 in 10.0 mi SSE 5.8 mph - N/A   Clear
4:35 PM 73.4 °F 42.8 °F 33% 30.06 in 10.0 mi ESE 4.6 mph - N/A   Clear
4:56 PM 73.4 °F 42.8 °F 33% 30.05 in 10.0 mi Calm Calm - N/A   Clear
5:15 PM 73.4 °F 42.8 °F 33% 30.05 in 10.0 mi Calm Calm - N/A   Clear
5:35 PM 73.4 °F 44.6 °F 36% 30.05 in 10.0 mi Calm Calm - N/A   Clear
5:56 PM 71.6 °F 42.8 °F 35% 30.05 in 10.0 mi Calm Calm - N/A   Clear
6:15 PM 73.4 °F 44.6 °F 36% 30.04 in 10.0 mi South 5.8 mph - N/A   Clear
6:35 PM 73.4 °F 44.6 °F 36% 30.03 in 10.0 mi SSE 5.8 mph - N/A   Clear
6:56 PM 73.4 °F 44.6 °F 36% 30.03 in 10.0 mi SSE 5.8 mph - N/A   Clear
7:15 PM 73.4 °F 44.6 °F 36% 30.02 in 10.0 mi South 8.1 mph - N/A   Clear
7:35 PM 73.4 °F 44.6 °F 36% 30.02 in 10.0 mi SSE 6.9 mph - N/A   Clear
7:56 PM 73.4 °F 44.6 °F 36% 30.02 in 10.0 mi South 6.9 mph - N/A   Clear
8:15 PM 71.6 °F 46.4 °F 41% 30.02 in 10.0 mi SSE 5.8 mph - N/A   Clear
8:35 PM 69.8 °F 48.2 °F 46% 30.02 in 10.0 mi SSE 5.8 mph - N/A   Clear
8:56 PM 69.8 °F 46.4 °F 43% 30.01 in 10.0 mi SE 4.6 mph - N/A   Clear
9:15 PM 69.8 °F 48.2 °F 46% 30.01 in 10.0 mi SE 4.6 mph - N/A   Clear
9:35 PM 69.8 °F 48.2 °F 46% 30.01 in 10.0 mi SE 5.8 mph - N/A   Clear
9:56 PM 68.0 °F 48.2 °F 49% 30.02 in 10.0 mi SE 4.6 mph - N/A   Clear
10:15 PM 64.4 °F 50.0 °F 59% 30.03 in 10.0 mi SSE 5.8 mph - N/A   Clear
10:35 PM 64.4 °F 51.8 °F 64% 30.03 in 10.0 mi SSE 5.8 mph - N/A   Clear
10:56 PM 64.4 °F 51.8 °F 64% 30.03 in 10.0 mi SE 6.9 mph - N/A   Clear
11:15 PM 62.6 °F 51.8 °F 68% 30.02 in 10.0 mi SSE 4.6 mph - N/A   Clear
11:35 PM 62.6 °F 51.8 °F 68% 30.02 in 10.0 mi SE 4.6 mph - N/A   Clear
11:56 PM 64.4 °F 51.8 °F 64% 30.02 in 10.0 mi SE 5.8 mph - N/A   Clear